Regional Weather Roundup
Issued by NWS

Home | Current Version | Previous Version | Text Only | Print | Product List | Glossary Off
Versions: 1 2 3 4 5 6 7 8 9 10 11 12 13 14 15 16 17 18 19 20 21 22 23 24 25 26 27 28 29 30 31 32 33 34 35 36 37 38 39 40 41 42 43 44 45 46 47 48 49 50

000
ASUS43 KOAX 090910
RWRNE

WEATHER ROUNDUP FOR NEBRASKA
NATIONAL WEATHER SERVICE OMAHA NE
300 AM CST TUE FEB 09 2016

NOTES: SATELLITE DATA IS BEING USED TO AUGMENT CLOUD COVER ABOVE
       12000 FEET.
       "FAIR" INDICATES FEW OR NO CLOUDS BELOW 12,000 FEET WITH NO
       SIGNIFICANT WEATHER AND/OR OBSTRUCTIONS TO VISIBILITY.

  * THESE STATIONS DO NOT REPORT WEATHER SUCH AS RAIN...SNOW OR FOG.

NEZ001>004-019>022-054>056-091000-
NEBRASKA PANHANDLE

CITY           SKY/WX    TMP DP  RH WIND       PRES   REMARKS
SCOTTSBLUFF    CLOUDY    33  26  75 NW10      30.24S WCI  25
ALLIANCE       CLOUDY    36  27  69 NW14      30.19S WCI  27
CHADRON        PTCLDY    33  26  75 NW9       30.23S WCI  25
KIMBALL        CLEAR     36  26  66 NW18      30.25R WCI  25
SIDNEY         MOCLDY    32  24  72 W14       30.23R WCI  22
$$

NEZ057>060-069>072-079>082-091000-
SOUTHWEST NEBRASKA

CITY           SKY/WX    TMP DP  RH WIND       PRES   REMARKS
NORTH PLATTE   CLOUDY    25  19  78 NW8       30.19F WCI  16
IMPERIAL       CLOUDY    30  23  75 NW8       30.22S WCI  22
LEXINGTON      CLOUDY    29  19  67 NW10      30.18R WCI  19
MCCOOK         CLOUDY    30  21  69 W10       30.21F WCI  21
OGALLALA       CLOUDY    21  17  87 SW7       30.22S WCI  12
$$

NEZ005>010-023>029-035>040-094-091000-
NORTH CENTRAL NEBRASKA

CITY           SKY/WX    TMP DP  RH WIND       PRES   REMARKS
VALENTINE      CLOUDY    28  18  66 NW8       30.21R WCI  20
AINSWORTH      CLOUDY    28  18  64 N21       30.18R WCI  15
BROKEN BOW     CLOUDY    31  18  58 N15       30.15S WCI  20
O`NEILL        CLEAR     23  12  63 N18       30.18R WCI   8
ORD            CLEAR     25  17  72 NW15      30.15R WCI  13
THEDFORD       CLOUDY    32  17  55 N10G18    30.19R WCI  24
$$

NEZ041-046>049-061>064-073>077-083>087-091000-
SOUTH CENTRAL NEBRASKA

CITY           SKY/WX    TMP DP  RH WIND       PRES   REMARKS
GRAND ISLAND   CLEAR     19  12  74 NW9       30.16R WCI   8
AURORA         CLEAR     21  15  78 NW10      30.15R WCI  10
HASTINGS       CLEAR     20  12  71 NW13      30.15S WCI   7
HEBRON         CLEAR     25  18  73 NW8       30.15S WCI  16
HOLDREGE       CLOUDY    27  18  70 W6        30.17R WCI  20
YORK           MOCLDY    23  18  80 N13       30.15R WCI  11
$$

NEZ011>018-030>034-042>045-091000-
NORTHEAST NEBRASKA

CITY           SKY/WX    TMP DP  RH WIND       PRES   REMARKS
NORFOLK        PTCLDY    20  10  65 N21G28    30.14R WCI   4
ALBION         CLEAR     22  12  64 N16G23    30.14R WCI   8
BLAIR          CLEAR     20  10  65 N18G24    30.08R WCI   5
COLUMBUS *     PTCLDY    21   7  53 NW12      30.14R WCI   9
FREMONT        PTCLDY    21  11  66 NW17G29   30.12R WCI   6
TEKAMAH        CLOUDY    20   9  62 N17       30.13R WCI   5
WAYNE          PTCLDY    18  10  73 N17       30.15R WCI   2
$$

NEZ050>053-065>068-078-088>093-091000-
SOUTHEAST NEBRASKA

CITY           SKY/WX    TMP DP  RH WIND       PRES   REMARKS
LINCOLN        PTCLDY    24  13  62 N17       30.14R WCI  11
OMAHA EPPLEY   PTCLDY    19  11  70 N21G28    30.10R WCI   3
BEATRICE       CLEAR     26  18  70 N15       30.12S WCI  14
FALLS CITY     CLEAR     25  10  53 N18G35    30.07S WCI  11
NEBRASKA CITY  PTCLDY    23  12  62 N18G29    30.08R WCI   8
PLATTSMOUTH    CLEAR     21  11  64 NW18G29   30.08R WCI   6
$$

NEZ044-045-051>053-067-091000-
OMAHA AREA

CITY           SKY/WX    TMP DP  RH WIND       PRES   REMARKS
OMAHA EPPLEY   PTCLDY    19  11  70 N21G28    30.10R WCI   3
BLAIR          CLEAR     20  10  65 N18G24    30.08R WCI   5
FREMONT        PTCLDY    21  11  66 NW17G29   30.12R WCI   6
MILLARD        CLOUDY    22  12  64 NW12G21   30.11R WCI  11
OFFUTT AFB     CLEAR     21   9  59 NW16G22   30.09R WCI   7
PLATTSMOUTH    CLEAR     21  11  64 NW18G29   30.08R WCI   6
WAHOO          FAIR      21  13  68 NW16G22   30.13R WCI   7
$$



USA.gov is the U.S. government's official web portal to all federal, state and local government web resources and services.